Location: *
(49.9853°N, 3.5569°E)
Time: 05:41:35
(UTC+00:00)

Resurs 01 Rocket - Pass Details

Date: 22 September 2019
Orbit: 635 x 644 km, 98.0° (Epoch: 20 October)

Event Time Altitude Azimuth Distance (km) Brightness Sun altitude
Exits shadow 20:40:24 38° 241° (WSW) 981 2.7 -27.1°
Maximum altitude 20:41:00 40° 262° (W) 946 2.7 -27.2°
Drops below altitude 10° 20:45:13 10° 333° (NNW) 2,051 5.0 -27.7°
Sets 20:47:34 0° 341° (NNW) 2,967 5.9 -28.0°
